Wind_Speed
20 17 23 26 36 41 45 56 59 56 57 58 62 67 63 57 59 57 59 57 53 54 50 48 42 38 36 48 45 47 42 41 42 37 27 29 29 35 39 45 49 54 56 59
5 14 13 19 30 35 35 42 52 50 54 56 63 65 59 56 58 55 57 55 52 49 47 47 43 36 36 34 38 40 39 29 32 30 32 30 34 38 43 47 56 58 58 49
6 14 6 11 23 31 33 32 44 47 49 54 60 62 59 55 56 55 55 55 51 47 45 46 45 38 36 35 39 39 39 35 33 33 31 32 36 40 45 42 48 49 43 43
8 9 11 11 17 29 27 30 36 41 46 48 56 57 57 54 54 54 53 52 51 47 45 49 49 47 42 42 43 40 34 32 31 34 37 40 37 42 46 45 42 39 45 47
6 5 7 9 17 23 28 32 30 36 40 44 50 53 55 55 54 51 49 49 50 48 46 46 51 50 45 43 45 44 44 42 46 46 44 43 43 40 34 34 36 36 38 43
5 1 5 17 16 22 26 23 28 31 36 39 44 51 50 54 49 48 48 46 47 48 47 46 49 52 53 50 47 50 50 46 38 36 36 36 34 31 30 31 33 35 41 42
12 14 18 16 16 18 28 21 24 28 33 37 40 45 48 49 47 46 43 45 47 47 46 45 43 46 49 49 44 41 38 34 32 31 31 30 32 30 28 32 33 34 41 34
9 7 9 14 16 8 21 23 23 26 29 34 37 41 45 46 48 47 43 44 47 46 46 44 43 41 40 38 35 34 30 28 26 26 25 26 30 30 26 30 36 34 32 28
6 3 1 14 14 14 20 24 24 25 27 31 35 39 40 41 42 44 44 44 45 46 44 41 40 37 35 33 33 28 27 26 25 26 29 28 28 29 26 27 25 32 32 25
8 5 4 11 15 17 19 24 25 26 28 30 33 36 35 37 40 40 41 40 42 42 39 37 37 33 33 30 24 25 26 25 29 29 30 30 28 25 28 29 30 35 34 28
9 5 6 9 13 16 21 23 24 25 27 28 30 32 34 34 36 39 39 37 38 37 37 35 31 32 28 24 24 27 29 29 28 31 33 31 29 31 32 34 38 33 28 28
6 5 7 8 13 19 20 23 25 26 24 26 27 30 33 33 36 39 38 36 37 35 35 34 33 29 27 27 30 32 33 31 33 35 34 36 32 33 36 38 32 21 29 35
5 8 7 9 10 17 21 23 25 26 25 26 25 28 31 35 37 39 39 38 36 32 30 28 27 28 29 31 34 35 35 34 36 37 37 37 36 34 37 38 37 36 35 35
3 4 4 11 10 11 18 23 25 26 26 26 26 26 30 33 37 39 38 37 37 35 32 30 32 34 36 35 36 37 37 37 37 37 39 39 39 30 34 36 34 32 30 32
3 2 3 4 12 14 14 15 17 21 25 25 25 25 30 32 34 37 37 38 37 36 36 37 37 37 37 38 39 39 38 38 37 36 38 36 38 42 38 41 30 25 21 21
4 2 11 3 9 13 14 14 14 20 25 24 23 23 26 32 34 35 36 37 38 39 39 40 39 39 41 42 43 42 42 41 40 36 40 36 42 28 39 33 38 24 25 22
6 1 6 4 3 3 15 15 15 15 11 14 19 24 27 29 33 38 39 38 37 38 40 42 45 47 48 44 37 37 40 41 45 43 42 46 39 36 36 34 24 18 17 22
4 5 4 5 4 5 15 13 16 18 15 14 14 18 20 24 33 38 40 42 44 46 48 47 48 48 44 37 39 39 38 39 38 41 30 37 35 14 9 5 13 20 19 22
4 6 6 4 8 6 15 14 18 16 15 13 14 13 17 21 23 29 32 37 36 37 38 34 33 34 34 33 32 31 31 38 36 33 22 18 16 17 14 12 18 21 25 27
6 7 6 6 8 9 13 15 17 16 17 23 25 22 28 24 20 20 24 27 29 29 34 36 37 35 32 29 30 33 29 24 25 27 15 17 14 15 13 20 25 26 28 24
5 5 10 10 9 10 15 19 20 17 20 16 18 15 16 16 20 22 23 21 22 30 33 34 36 36 36 18 22 25 26 25 21 16 11 7 12 18 12 19 22 23 26 22
8 7 5 3 7 13 14 15 17 20 18 15 12 12 16 16 11 19 27 31 32 24 34 32 25 23 21 21 20 17 14 15 15 9 8 2 11 16 22 22 16 18 17 19
5 4 4 6 9 12 14 15 13 16 17 15 15 11 8 14 13 11 13 15 20 17 33 35 29 20 20 16 12 10 8 8 14 13 18 11 12 8 11 14 11 14 17 19
10 10 9 6 11 12 17 15 17 16 17 19 18 12 9 17 17 15 19 21 28 26 30 26 21 19 14 10 10 12 11 9 11 22 19 11 15 12 12 12 14 17 18 19
13 11 10 5 15 11 16 17 17 20 21 19 14 11 13 16 18 17 16 13 18 19 19 20 18 14 12 13 11 8 6 7 8 6 17 19 18 16 17 17 16 17 19 19
17 12 10 7 10 16 12 20 23 25 22 20 16 13 14 14 13 16 16 15 17 17 15 17 17 16 15 13 10 10 11 10 10 11 12 15 17 18 17 17 19 21 22 24
Wind_Direction
282 223 216 221 222 222 221 214 209 205 208 208 206 208 207 209 211 207 213 219 217 218 214 218 222 222 224 229 235 226 220 222 225 229 256 255 266 274 272 272 269 268 271 268
213 183 191 229 219 212 204 210 206 200 204 202 207 208 208 207 209 208 211 216 218 220 211 215 220 223 222 232 231 223 228 252 248 253 262 269 272 275 274 276 279 285 272 290
190 203 166 220 204 205 196 198 199 197 201 200 204 209 207 205 208 209 211 212 216 217 214 209 215 216 227 236 225 228 232 235 248 256 263 271 277 275 274 291 301 301 294 309
347 241 204 216 194 190 158 204 194 193 199 199 203 206 205 206 210 209 214 216 216 218 216 210 212 221 227 232 232 238 237 244 250 259 266 274 273 276 284 290 290 294 301 307
89 119 150 156 176 183 185 197 189 191 195 196 202 203 204 206 208 211 213 217 219 219 217 216 217 217 222 226 235 238 244 257 270 275 277 279 281 286 290 296 301 295 293 299
300 218 152 145 157 158 157 201 187 187 189 193 199 203 202 207 209 214 214 215 219 222 221 220 221 223 226 231 238 247 255 263 267 270 278 285 288 294 297 297 300 290 284 296
19 67 112 146 156 169 173 171 174 181 185 188 195 204 198 203 205 211 213 214 218 221 223 225 225 228 231 237 243 249 256 265 274 279 284 291 292 297 294 296 291 295 280 295
8 51 135 141 176 175 189 180 174 178 182 186 191 200 200 199 204 206 209 211 216 222 226 228 231 233 238 243 246 250 261 264 269 283 296 304 308 299 293 294 294 288 293 304
53 19 20 184 173 180 175 178 176 175 180 184 190 197 200 198 202 209 210 211 216 219 225 231 236 239 240 242 244 251 254 262 277 286 293 303 306 292 280 284 290 282 290 280
61 61 122 150 169 162 166 176 174 176 178 181 187 194 200 197 199 207 208 209 213 218 221 225 230 235 241 244 239 246 258 272 279 288 294 296 301 281 274 271 276 280 274 261
41 74 123 150 156 157 167 174 177 176 177 181 186 190 197 198 196 202 208 208 210 212 217 221 225 225 227 235 245 258 265 269 284 290 292 290 285 267 268 265 258 257 262 253
23 77 111 142 164 148 172 181 180 177 177 181 186 191 194 198 196 197 203 207 212 211 209 207 211 222 230 238 249 256 265 278 283 289 284 285 279 267 267 264 232 252 240 249
80 68 125 144 161 171 172 182 185 183 178 181 187 190 191 197 200 200 202 204 208 213 217 222 225 227 232 238 249 259 268 277 281 280 282 279 266 265 254 234 232 225 227 243
88 39 81 156 151 167 186 185 188 187 186 184 187 190 190 194 201 203 204 207 211 218 222 224 231 237 244 253 261 266 271 273 272 275 280 276 263 245 229 224 220 242 251 260
206 275 9 131 168 169 171 184 202 206 200 194 192 195 192 196 199 203 207 212 215 219 225 230 236 244 250 256 263 268 267 265 263 268 266 262 244 241 238 245 251 260 259 264
185 315 119 115 165 174 175 184 200 201 199 196 199 197 200 200 201 203 205 209 214 219 226 232 237 243 249 255 256 257 259 261 265 255 256 254 233 247 233 249 261 235 245 245
205 23 46 157 226 203 194 197 197 198 205 209 209 204 204 203 201 205 208 211 213 219 228 236 241 244 245 251 257 257 254 257 253 244 259 252 257 219 228 240 229 240 254 260
253 246 284 167 176 160 173 180 191 185 185 191 208 220 225 223 217 209 210 214 218 221 225 232 236 244 250 242 239 245 246 250 257 250 265 248 230 232 224 290 264 249 267 268
240 198 203 176 171 150 170 173 164 143 164 166 181 193 193 194 219 230 229 231 233 231 224 221 229 224 224 228 231 239 246 251 258 241 272 280 280 250 308 277 259 253 265 269
178 196 197 220 189 180 168 184 185 171 168 175 175 179 188 189 191 195 202 202 208 218 211 211 215 215 217 222 232 243 255 264 286 293 295 296 283 288 267 263 259 269 276 281
156 177 144 157 186 190 165 166 182 194 179 163 165 158 172 188 204 204 195 208 207 221 214 216 225 216 228 239 238 255 266 270 271 270 275 244 255 221 273 281 276 285 287 282
151 157 190 236 154 184 171 165 166 172 177 177 159 180 187 205 184 206 217 218 215 210 215 228 212 208 226 235 249 262 259 252 274 275 258 294 253 239 267 276 279 279 282 285
184 110 123 189 196 183 174 174 157 165 170 159 170 177 149 169 189 189 183 209 183 221 212 215 210 230 222 225 237 248 274 267 291 234 279 231 262 226 252 278 291 301 297 295
215 224 190 205 216 192 183 175 170 163 171 174 181 170 156 148 134 121 127 150 170 178 186 208 215 206 212 223 242 269 265 288 283 231 234 243 276 286 293 296 299 293 295 301
228 248 262 238 173 197 186 192 174 168 174 180 187 199 167 156 151 149 146 144 154 163 170 176 185 190 207 220 233 252 271 286 298 282 252 262 275 299 291 291 297 300 299 297
233 239 247 259 157 186 197 204 184 179 181 180 180 190 181 182 163 170 178 184 185 180 182 184 197 201 208 214 228 256 272 280 283 278 279 277 277 278 284 295 301 301 302 302
Height
5580 5581 5587 5598 5603 5611 5623 5633 5648 5665 5679 5692 5710 5716 5730 5741 5750 5761 5768 5779 5792 5802 5814 5822 5829 5834 5839 5845 5850 5851 5853 5857 5860 5864 5868 5869 5872 5873 5873 5872 5870 5868 5868 5866
5581 5582 5588 5593 5598 5606 5618 5629 5643 5656 5667 5683 5692 5705 5719 5732 5742 5754 5763 5774 5786 5795 5808 5817 5824 5830 5835 5839 5843 5846 5850 5852 5857 5860 5862 5864 5866 5867 5865 5866 5863 5862 5860 5857
5583 5584 5586 5590 5596 5605 5616 5627 5638 5650 5661 5672 5683 5693 5710 5725 5737 5747 5756 5769 5779 5791 5802 5812 5820 5824 5829 5835 5839 5843 5846 5848 5853 5854 5857 5859 5859 5858 5858 5857 5855 5850 5850 5842
5589 5589 5590 5593 5599 5606 5620 5627 5635 5646 5657 5671 5680 5694 5705 5720 5732 5742 5752 5764 5775 5786 5796 5805 5813 5819 5822 5829 5833 5837 5841 5844 5846 5848 5851 5850 5851 5850 5852 5850 5847 5842 5838 5835
5593 5592 5592 5596 5602 5610 5619 5629 5635 5642 5651 5664 5676 5691 5701 5712 5725 5738 5751 5761 5770 5780 5789 5799 5807 5811 5816 5822 5826 5831 5835 5837 5839 5840 5842 5843 5845 5845 5843 5842 5837 5832 5829 5828
5594 5595 5596 5600 5605 5612 5622 5628 5635 5643 5653 5663 5675 5686 5698 5712 5732 5738 5745 5755 5765 5773 5782 5790 5797 5805 5811 5817 5822 5825 5829 5831 5833 5835 5835 5835 5836 5836 5835 5832 5829 5827 5826 5820
5600 5599 5599 5604 5609 5614 5620 5628 5637 5645 5653 5664 5673 5684 5698 5709 5720 5731 5741 5750 5758 5767 5776 5783 5792 5798 5804 5811 5816 5819 5821 5823 5825 5828 5828 5827 5826 5826 5826 5825 5823 5822 5819 5811
5603 5605 5608 5609 5613 5618 5624 5632 5639 5646 5655 5664 5673 5682 5693 5704 5714 5723 5731 5742 5751 5760 5768 5777 5784 5791 5797 5802 5807 5811 5815 5818 5820 5821 5820 5819 5816 5815 5815 5815 5815 5814 5809 5805
5608 5608 5608 5611 5614 5621 5625 5633 5640 5647 5656 5664 5673 5682 5689 5700 5709 5717 5726 5735 5743 5752 5761 5770 5777 5783 5789 5795 5801 5805 5809 5810 5812 5812 5812 5811 5810 5809 5806 5805 5804 5804 5800 5799
5610 5610 5611 5614 5617 5621 5627 5635 5642 5647 5655 5663 5672 5680 5686 5696 5705 5713 5722 5731 5739 5746 5755 5763 5770 5776 5782 5789 5794 5797 5800 5801 5802 5803 5804 5804 5803 5802 5801 5799 5795 5792 5792 5790
5612 5613 5615 5616 5620 5623 5630 5636 5643 5649 5656 5662 5670 5678 5686 5694 5703 5710 5717 5724 5733 5743 5750 5757 5764 5770 5776 5782 5785 5789 5791 5794 5795 5795 5795 5794 5793 5792 5790 5787 5783 5781 5782 5782
5615 5614 5615 5618 5621 5624 5631 5638 5643 5649 5657 5663 5670 5678 5684 5691 5699 5706 5714 5721 5727 5737 5745 5751 5759 5765 5770 5774 5778 5782 5784 5786 5788 5789 5789 5787 5785 5784 5782 5776 5772 5775 5774 5775
5615 5616 5617 5619 5623 5626 5630 5637 5643 5649 5655 5661 5668 5675 5681 5689 5695 5703 5711 5718 5725 5732 5740 5747 5752 5758 5763 5768 5773 5776 5777 5779 5781 5782 5781 5778 5776 5773 5770 5766 5768 5764 5762 5764
5618 5617 5618 5620 5623 5628 5632 5636 5641 5647 5653 5659 5665 5672 5679 5686 5692 5699 5707 5714 5722 5729 5734 5741 5746 5752 5756 5760 5763 5767 5769 5771 5772 5773 5772 5769 5764 5763 5759 5755 5751 5754 5756 5755
5618 5618 5619 5620 5623 5627 5631 5637 5642 5646 5651 5658 5664 5670 5677 5683 5688 5696 5703 5709 5717 5724 5729 5735 5741 5747 5751 5753 5755 5758 5759 5760 5762 5763 5761 5759 5753 5750 5747 5748 5747 5748 5749 5749
5619 5619 5619 5620 5623 5627 5632 5636 5641 5645 5650 5657 5663 5669 5673 5679 5685 5692 5699 5705 5712 5719 5723 5729 5735 5739 5742 5744 5746 5748 5749 5750 5752 5752 5749 5748 5739 5738 5740 5743 5743 5744 5745 5745
5620 5621 5622 5623 5624 5627 5632 5635 5639 5644 5650 5656 5662 5667 5672 5677 5683 5689 5695 5702 5709 5715 5720 5724 5728 5731 5734 5739 5741 5741 5741 5744 5743 5742 5740 5741 5738 5732 5735 5738 5739 5740 5741 5742
5619 5621 5622 5624 5627 5627 5630 5634 5639 5643 5650 5654 5659 5664 5669 5674 5678 5684 5690 5695 5701 5707 5712 5716 5721 5724 5727 5728 5728 5733 5734 5733 5737 5737 5736 5733 5730 5729 5730 5732 5733 5736 5735 5735
5619 5620 5622 5624 5626 5628 5631 5635 5639 5644 5650 5654 5659 5662 5666 5671 5675 5679 5684 5688 5693 5698 5703 5708 5713 5715 5719 5721 5724 5725 5727 5728 5729 5730 5729 5729 5724 5729 5728 5728 5729 5728 5727 5728
5619 5621 5623 5623 5625 5628 5631 5635 5639 5643 5649 5652 5656 5659 5665 5669 5673 5676 5680 5683 5688 5692 5696 5700 5704 5708 5712 5715 5718 5717 5717 5719 5722 5722 5723 5724 5727 5725 5725 5724 5724 5723 5722 5724
5619 5621 5620 5623 5625 5628 5631 5635 5638 5644 5650 5650 5655 5659 5662 5666 5670 5674 5676 5679 5683 5687 5692 5697 5701 5702 5708 5706 5710 5713 5713 5713 5715 5717 5715 5716 5717 5718 5718 5719 5719 5718 5718 5717
5620 5621 5622 5623 5625 5629 5631 5635 5637 5641 5645 5649 5654 5657 5660 5661 5664 5667 5670 5673 5677 5679 5686 5691 5697 5700 5701 5703 5706 5707 5707 5708 5708 5708 5710 5711 5713 5713 5715 5715 5714 5713 5712 5712
5622 5619 5622 5625 5626 5628 5630 5633 5637 5640 5644 5649 5652 5654 5655 5656 5659 5661 5661 5662 5669 5674 5680 5688 5692 5694 5697 5701 5702 5702 5701 5700 5700 5702 5706 5706 5708 5709 5710 5709 5708 5708 5708 5707
5620 5620 5622 5624 5624 5627 5630 5633 5636 5640 5642 5647 5649 5652 5653 5654 5656 5658 5658 5662 5667 5669 5679 5685 5687 5691 5693 5694 5696 5696 5697 5696 5697 5699 5701 5701 5703 5702 5703 5703 5703 5704 5703 5700
5620 5621 5621 5622 5624 5626 5628 5631 5635 5639 5642 5644 5648 5651 5652 5655 5658 5661 5664 5667 5670 5674 5679 5682 5686 5689 5691 5693 5694 5694 5694 5694 5695 5695 5696 5697 5697 5697 5699 5699 5697 5697 5696 5694
5618 5620 5621 5621 5622 5624 5626 5629 5633 5637 5641 5644 5647 5651 5654 5656 5659 5662 5665 5670 5674 5677 5680 5682 5686 5687 5689 5690 5692 5693 5693 5693 5694 5694 5694 5694 5694 5694 5694 5693 5693 5691 5689 5687